GFSSGP_500_temp_096.txt.gz
Temp
-8 -7 -7 -7 -7 -6 -6 -6 -7 -7 -7 -7 -7 -7 -8 -8 -7 -6 -7 -7 -7 -7 -6 -6 -5 -5 -4 -4 -5 -4 -4 -4 -5 -5 -5 -5 -5 -5 -6 -6 -5 -5 -5 -5 -5 -4 -4 -5 -5
-8 -8 -8 -7 -7 -6 -6 -7 -7 -8 -7 -7 -7 -7 -8 -8 -8 -8 -7 -7 -7 -8 -7 -6 -6 -5 -5 -5 -5 -5 -4 -4 -5 -5 -5 -5 -5 -6 -6 -6 -6 -5 -5 -5 -5 -5 -5 -5 -5
-7 -8 -8 -7 -6 -6 -6 -7 -7 -8 -8 -7 -7 -7 -7 -8 -8 -7 -8 -7 -7 -7 -7 -7 -7 -6 -6 -6 -5 -5 -5 -5 -5 -5 -5 -5 -5 -6 -6 -6 -6 -6 -5 -5 -5 -5 -5 -5 -5
-7 -8 -7 -7 -7 -7 -7 -7 -7 -8 -9 -8 -7 -7 -7 -8 -8 -8 -7 -8 -9 -8 -7 -7 -7 -7 -7 -6 -6 -5 -5 -5 -5 -5 -5 -5 -5 -6 -6 -6 -6 -6 -6 -6 -6 -6 -6 -6 -6
-8 -8 -8 -7 -7 -7 -7 -7 -7 -8 -8 -8 -8 -7 -7 -7 -8 -8 -8 -8 -8 -8 -8 -7 -7 -7 -7 -7 -6 -6 -6 -6 -6 -6 -6 -5 -5 -6 -6 -6 -6 -6 -6 -6 -6 -6 -6 -6 -6
-8 -8 -8 -8 -8 -8 -8 -8 -7 -8 -9 -9 -8 -7 -7 -7 -7 -8 -8 -8 -8 -8 -9 -8 -8 -8 -7 -7 -7 -6 -6 -6 -6 -6 -6 -6 -6 -6 -6 -6 -6 -6 -6 -6 -6 -6 -6 -6 -6
-8 -8 -8 -8 -8 -8 -8 -8 -7 -8 -8 -9 -9 -8 -8 -7 -7 -7 -8 -8 -8 -8 -8 -8 -9 -8 -8 -7 -7 -7 -7 -7 -7 -7 -7 -6 -6 -6 -6 -6 -7 -7 -7 -7 -7 -7 -7 -7 -7
-8 -8 -7 -8 -8 -8 -8 -7 -7 -7 -8 -8 -9 -8 -8 -8 -7 -7 -7 -8 -8 -8 -8 -8 -8 -9 -8 -8 -7 -7 -7 -7 -7 -7 -7 -7 -7 -7 -7 -7 -7 -7 -7 -7 -7 -7 -7 -7 -8
-8 -7 -8 -9 -8 -7 -7 -7 -7 -7 -7 -8 -7 -8 -8 -9 -8 -8 -7 -7 -8 -8 -8 -8 -8 -9 -9 -9 -8 -8 -7 -7 -7 -7 -7 -8 -8 -8 -8 -8 -8 -8 -8 -8 -8 -8 -8 -8 -8
-8 -8 -9 -8 -8 -7 -7 -6 -7 -6 -6 -7 -8 -7 -6 -9 -9 -9 -8 -8 -8 -9 -8 -8 -8 -9 -9 -9 -9 -9 -8 -8 -7 -7 -7 -8 -8 -8 -8 -8 -8 -8 -8 -8 -8 -8 -8 -9 -9
-8 -9 -8 -8 -8 -7 -7 -6 -6 -6 -6 -6 -7 -9 -8 -8 -9 -10 -9 -9 -9 -9 -9 -9 -8 -9 -9 -9 -9 -9 -9 -9 -8 -8 -7 -8 -8 -8 -8 -8 -9 -9 -9 -8 -8 -9 -9 -9 -9
-9 -9 -9 -9 -8 -8 -7 -6 -6 -6 -5 -6 -7 -8 -10 -8 -10 -10 -10 -10 -9 -9 -10 -10 -9 -8 -9 -9 -9 -9 -9 -9 -9 -9 -8 -8 -8 -8 -9 -9 -9 -9 -9 -9 -9 -9 -9 -9 -9
-10 -9 -10 -9 -8 -8 -7 -7 -6 -5 -5 -7 -7 -8 -12 -9 -10 -12 -11 -10 -10 -10 -9 -10 -10 -10 -8 -8 -8 -8 -9 -9 -9 -8 -9 -10 -9 -9 -9 -9 -9 -9 -9 -9 -9 -9 -9 -9 -10
-10 -10 -9 -9 -9 -8 -7 -7 -6 -7 -8 -8 -9 -9 -13 -11 -11 -11 -12 -11 -10 -11 -10 -10 -10 -9 -9 -9 -9 -8 -9 -9 -9 -9 -9 -9 -9 -10 -9 -10 -9 -9 -9 -9 -9 -9 -9 -9 -9
-10 -10 -10 -10 -10 -9 -8 -9 -8 -9 -10 -10 -10 -13 -14 -13 -11 -12 -12 -12 -11 -10 -10 -10 -10 -10 -10 -10 -10 -9 -9 -9 -9 -10 -9 -9 -9 -8 -10 -10 -10 -10 -9 -9 -9 -9 -9 -9 -9
-10 -10 -11 -10 -10 -9 -8 -11 -11 -12 -12 -12 -13 -15 -15 -14 -13 -13 -12 -11 -11 -12 -11 -11 -10 -10 -10 -10 -11 -11 -10 -10 -9 -9 -10 -9 -10 -9 -9 -9 -10 -10 -10 -9 -9 -9 -9 -9 -10
-11 -11 -11 -11 -11 -10 -11 -12 -13 -13 -13 -14 -15 -15 -15 -15 -13 -13 -12 -12 -12 -12 -12 -12 -11 -11 -11 -11 -12 -12 -11 -11 -12 -10 -10 -11 -10 -9 -9 -9 -10 -10 -10 -10 -9 -9 -9 -10 -10
-12 -12 -11 -11 -12 -11 -12 -12 -13 -14 -14 -15 -15 -15 -15 -15 -15 -14 -14 -13 -13 -12 -13 -14 -12 -12 -12 -12 -12 -13 -13 -12 -12 -12 -12 -12 -11 -11 -9 -9 -9 -9 -9 -9 -10 -10 -10 -10 -10
-12 -12 -12 -12 -13 -12 -13 -13 -13 -13 -14 -15 -15 -15 -15 -15 -14 -15 -14 -13 -14 -14 -14 -14 -12 -12 -11 -11 -12 -12 -12 -13 -13 -13 -12 -12 -11 -11 -11 -9 -8 -9 -9 -10 -10 -10 -10 -10 -10
-13 -12 -13 -13 -13 -13 -13 -13 -13 -13 -13 -14 -15 -15 -15 -14 -14 -14 -14 -14 -13 -13 -13 -12 -12 -12 -12 -12 -12 -12 -12 -12 -12 -12 -12 -12 -12 -12 -12 -10 -10 -11 -9 -8 -10 -10 -10 -10 -10
-13 -13 -13 -13 -14 -13 -13 -13 -14 -14 -14 -15 -15 -15 -15 -15 -15 -15 -15 -15 -15 -14 -14 -13 -13 -12 -12 -12 -12 -12 -12 -12 -12 -12 -12 -12 -11 -11 -11 -11 -11 -10 -10 -9 -9 -9 -10 -10 -10
-14 -14 -14 -14 -14 -14 -14 -14 -14 -14 -14 -15 -14 -14 -15 -15 -15 -14 -15 -15 -15 -15 -14 -14 -13 -12 -12 -12 -12 -12 -12 -12 -12 -12 -12 -11 -11 -11 -11 -10 -10 -10 -10 -10 -9 -10 -10 -10 -9
-14 -14 -14 -14 -14 -14 -15 -15 -15 -15 -15 -15 -15 -15 -15 -15 -15 -15 -14 -14 -14 -14 -13 -13 -12 -12 -12 -11 -11 -11 -11 -12 -11 -12 -12 -11 -11 -11 -11 -11 -10 -9 -10 -9 -9 -9 -10 -10 -10
-15 -15 -15 -15 -15 -14 -15 -15 -14 -15 -15 -15 -15 -14 -14 -14 -15 -15 -15 -14 -14 -14 -14 -14 -14 -14 -14 -13 -12 -12 -12 -11 -11 -12 -12 -11 -11 -10 -10 -10 -10 -10 -10 -10 -10 -10 -9 -9 -10
-17 -16 -16 -16 -15 -15 -15 -15 -15 -14 -15 -15 -15 -15 -15 -15 -15 -15 -15 -15 -15 -15 -14 -14 -13 -14 -13 -13 -13 -14 -14 -14 -13 -13 -12 -11 -11 -11 -11 -11 -10 -10 -10 -10 -10 -10 -10 -10 -9
-18 -18 -17 -17 -16 -16 -16 -15 -15 -15 -15 -15 -14 -14 -15 -14 -14 -14 -14 -15 -15 -15 -14 -14 -13 -13 -13 -13 -13 -13 -13 -13 -13 -12 -11 -11 -10 -10 -11 -11 -11 -11 -11 -11 -10 -10 -10 -10 -11
-17 -17 -17 -17 -17 -16 -16 -16 -16 -15 -15 -15 -15 -15 -15 -15 -15 -15 -15 -15 -15 -15 -14 -14 -14 -14 -14 -14 -13 -13 -13 -12 -11 -11 -11 -11 -11 -11 -11 -11 -11 -11 -11 -10 -10 -10 -10 -10 -11
-17 -17 -17 -17 -17 -17 -16 -16 -16 -16 -15 -16 -15 -15 -15 -16 -15 -15 -15 -15 -15 -15 -14 -14 -14 -14 -14 -13 -12 -11 -11 -11 -11 -11 -11 -11 -11 -11 -11 -11 -11 -11 -11 -11 -11 -11 -10 -10 -10
-17 -17 -16 -17 -17 -16 -16 -16 -16 -16 -16 -16 -16 -16 -15 -15 -15 -15 -15 -15 -15 -15 -14 -14 -14 -13 -13 -11 -11 -11 -11 -11 -11 -11 -12 -12 -12 -12 -11 -11 -11 -11 -11 -11 -11 -11 -11 -11 -10
-16 -16 -17 -17 -17 -16 -16 -15 -16 -16 -16 -15 -16 -16 -15 -16 -15 -15 -15 -14 -14 -14 -14 -14 -13 -13 -12 -12 -12 -12 -12 -11 -12 -11 -11 -11 -11 -11 -10 -10 -10 -11 -11 -11 -11 -10 -10 -11 -11

GFSSGP_500_temp_102.txt.gz
Temp
-7 -7 -7 -7 -7 -6 -6 -7 -7 -7 -7 -6 -6 -6 -7 -7 -5 -6 -5 -5 -4 -5 -5 -5 -5 -5 -5 -5 -5 -4 -4 -3 -3 -3 -3 -3 -3 -3 -3 -4 -4 -4 -4 -4 -4 -4 -5 -4 -4
-7 -7 -7 -7 -7 -6 -6 -7 -7 -7 -7 -6 -6 -6 -7 -8 -7 -5 -6 -6 -5 -4 -4 -4 -4 -5 -6 -7 -6 -5 -5 -4 -4 -4 -4 -4 -4 -4 -4 -4 -5 -5 -5 -5 -5 -5 -5 -5 -5
-8 -7 -7 -7 -7 -6 -7 -6 -7 -7 -7 -7 -6 -6 -7 -7 -7 -7 -6 -6 -6 -6 -5 -4 -4 -5 -5 -6 -7 -7 -6 -5 -5 -4 -4 -4 -4 -4 -4 -5 -5 -5 -5 -5 -5 -5 -5 -5 -5
-8 -8 -8 -7 -7 -7 -7 -6 -7 -7 -7 -8 -7 -7 -7 -6 -7 -7 -7 -6 -6 -6 -6 -5 -5 -5 -5 -5 -6 -6 -7 -6 -6 -5 -5 -5 -5 -5 -5 -5 -6 -6 -6 -6 -6 -6 -6 -6 -6
-8 -8 -8 -8 -7 -7 -7 -7 -7 -7 -8 -8 -7 -7 -7 -7 -7 -7 -7 -7 -7 -6 -6 -6 -6 -5 -5 -5 -5 -6 -6 -6 -6 -6 -6 -6 -6 -6 -5 -6 -6 -6 -6 -6 -6 -6 -6 -6 -6
-8 -8 -8 -8 -8 -8 -7 -7 -7 -7 -7 -8 -7 -7 -7 -7 -7 -7 -7 -7 -7 -7 -7 -6 -6 -6 -6 -5 -6 -6 -6 -6 -7 -7 -6 -6 -6 -6 -6 -6 -7 -7 -7 -7 -7 -6 -6 -6 -6
-9 -9 -8 -8 -8 -8 -8 -7 -7 -6 -7 -7 -7 -7 -7 -6 -6 -7 -7 -7 -7 -7 -7 -7 -7 -7 -6 -6 -6 -6 -7 -7 -7 -7 -7 -7 -6 -6 -6 -7 -7 -7 -7 -7 -7 -7 -7 -7 -7
-9 -9 -9 -9 -9 -9 -8 -8 -7 -7 -7 -7 -8 -8 -7 -6 -6 -6 -7 -7 -8 -8 -7 -7 -8 -8 -8 -7 -6 -7 -8 -8 -8 -8 -7 -7 -7 -7 -7 -7 -7 -7 -7 -8 -8 -8 -8 -8 -7
-9 -9 -9 -9 -9 -9 -8 -8 -7 -7 -7 -7 -7 -8 -8 -7 -7 -7 -7 -7 -7 -8 -8 -8 -8 -8 -8 -8 -8 -7 -7 -8 -8 -8 -8 -8 -8 -7 -7 -7 -7 -7 -7 -8 -8 -8 -8 -8 -8
-9 -9 -9 -9 -9 -9 -8 -8 -8 -7 -8 -8 -8 -8 -8 -8 -7 -7 -7 -7 -7 -7 -7 -8 -8 -8 -8 -8 -8 -8 -8 -8 -8 -8 -8 -8 -8 -8 -8 -7 -8 -8 -8 -8 -8 -8 -8 -8 -8
-9 -9 -9 -9 -9 -9 -8 -8 -8 -8 -8 -8 -8 -8 -7 -7 -7 -7 -7 -6 -6 -7 -7 -7 -8 -9 -9 -8 -8 -8 -8 -8 -8 -8 -9 -9 -8 -9 -8 -8 -8 -8 -8 -8 -8 -8 -9 -9 -9
-9 -9 -9 -9 -9 -9 -9 -8 -8 -7 -8 -8 -8 -8 -7 -7 -7 -7 -7 -7 -7 -7 -7 -7 -8 -9 -9 -9 -9 -9 -9 -8 -8 -8 -8 -9 -9 -8 -9 -8 -8 -8 -9 -8 -9 -9 -9 -9 -9
-9 -10 -9 -9 -9 -9 -9 -9 -8 -8 -8 -8 -8 -8 -7 -7 -7 -7 -7 -7 -7 -7 -8 -8 -8 -8 -8 -8 -9 -9 -9 -9 -9 -8 -8 -8 -9 -9 -9 -9 -9 -9 -9 -9 -9 -9 -9 -9 -9
-10 -10 -10 -10 -10 -9 -9 -8 -8 -8 -8 -8 -7 -7 -7 -7 -7 -7 -6 -6 -7 -7 -8 -7 -8 -9 -8 -8 -9 -9 -10 -10 -9 -9 -9 -8 -8 -9 -9 -9 -9 -9 -9 -9 -9 -9 -9 -9 -9
-10 -10 -10 -10 -10 -9 -9 -9 -9 -8 -8 -7 -7 -7 -7 -7 -7 -7 -7 -7 -7 -8 -9 -9 -10 -9 -10 -10 -10 -10 -10 -10 -9 -9 -8 -9 -9 -9 -9 -9 -9 -9 -9 -9 -9 -9 -9 -9 -9
-12 -11 -11 -11 -10 -9 -9 -10 -9 -9 -8 -8 -7 -8 -7 -7 -7 -7 -9 -10 -11 -11 -12 -12 -12 -12 -11 -11 -11 -11 -10 -10 -10 -9 -8 -9 -9 -9 -9 -9 -9 -9 -9 -9 -9 -9 -9 -9 -9
-12 -12 -12 -11 -10 -10 -10 -10 -10 -9 -8 -9 -9 -8 -8 -7 -8 -9 -10 -13 -12 -13 -12 -12 -12 -12 -12 -12 -11 -11 -11 -10 -10 -9 -9 -9 -9 -9 -9 -9 -9 -9 -9 -9 -9 -9 -9 -9 -9
-13 -13 -12 -12 -11 -11 -10 -11 -10 -9 -10 -10 -9 -9 -9 -9 -9 -11 -11 -13 -13 -13 -13 -12 -12 -11 -12 -12 -11 -12 -12 -11 -11 -10 -10 -10 -10 -9 -10 -10 -10 -10 -10 -10 -10 -9 -9 -9 -10
-14 -13 -13 -12 -12 -11 -11 -11 -11 -10 -11 -10 -10 -11 -11 -11 -11 -11 -13 -14 -14 -14 -13 -13 -13 -12 -12 -11 -11 -11 -11 -11 -11 -11 -10 -11 -11 -10 -9 -9 -10 -10 -10 -10 -10 -10 -10 -10 -10
-14 -13 -13 -13 -13 -12 -12 -12 -12 -12 -12 -11 -11 -11 -12 -12 -12 -12 -13 -14 -14 -14 -14 -14 -14 -13 -13 -12 -13 -12 -12 -13 -12 -12 -12 -12 -11 -11 -11 -11 -9 -10 -10 -10 -10 -10 -10 -10 -10
-15 -14 -14 -14 -13 -13 -12 -12 -13 -12 -12 -12 -12 -12 -12 -12 -13 -13 -14 -14 -14 -14 -14 -14 -14 -14 -13 -13 -14 -14 -14 -14 -13 -13 -13 -13 -13 -12 -10 -7 -10 -11 -12 -12 -11 -11 -11 -10 -11
-14 -15 -15 -14 -14 -14 -14 -14 -14 -13 -13 -12 -13 -12 -12 -12 -13 -14 -14 -14 -15 -14 -14 -14 -14 -14 -14 -14 -15 -14 -15 -15 -14 -14 -14 -14 -14 -12 -11 -11 -13 -12 -11 -11 -12 -11 -11 -12 -12
-15 -15 -15 -16 -15 -15 -15 -14 -15 -13 -13 -13 -14 -13 -13 -14 -14 -14 -14 -15 -15 -15 -15 -15 -14 -14 -14 -14 -14 -15 -15 -15 -13 -14 -13 -13 -13 -12 -12 -11 -11 -11 -12 -12 -12 -12 -12 -12 -11
-15 -16 -16 -16 -17 -16 -15 -15 -15 -15 -15 -14 -14 -15 -15 -14 -14 -15 -15 -15 -16 -15 -15 -15 -15 -15 -15 -16 -16 -15 -15 -15 -15 -15 -14 -13 -13 -12 -12 -12 -12 -12 -12 -11 -11 -11 -11 -11 -11
-15 -15 -16 -16 -17 -16 -16 -16 -15 -16 -15 -15 -15 -15 -15 -15 -15 -15 -15 -15 -16 -16 -15 -15 -15 -15 -15 -15 -15 -16 -15 -15 -15 -14 -14 -14 -13 -13 -12 -12 -12 -11 -11 -11 -10 -10 -10 -11 -10
-15 -16 -16 -16 -16 -16 -16 -16 -16 -15 -15 -15 -15 -15 -15 -15 -15 -15 -15 -15 -15 -15 -15 -15 -15 -15 -15 -15 -15 -15 -15 -15 -15 -15 -14 -14 -14 -14 -14 -14 -13 -13 -12 -12 -12 -11 -12 -11 -11
-17 -16 -17 -16 -16 -16 -15 -16 -16 -16 -15 -15 -15 -15 -15 -15 -15 -15 -14 -15 -15 -15 -15 -15 -14 -15 -15 -15 -15 -15 -15 -15 -14 -14 -14 -14 -14 -14 -13 -13 -13 -13 -12 -12 -12 -12 -11 -12 -12
-16 -17 -17 -17 -17 -16 -16 -16 -17 -16 -15 -16 -16 -16 -15 -15 -15 -15 -15 -15 -15 -15 -15 -15 -15 -15 -15 -15 -15 -14 -14 -13 -13 -13 -13 -13 -12 -12 -12 -12 -12 -12 -12 -12 -12 -12 -11 -11 -11
-16 -17 -17 -17 -16 -16 -16 -16 -16 -16 -16 -16 -16 -16 -16 -16 -15 -15 -15 -15 -15 -15 -15 -14 -14 -14 -14 -14 -14 -13 -13 -13 -13 -13 -13 -12 -12 -12 -12 -12 -12 -11 -11 -11 -11 -11 -11 -11 -10
-17 -18 -18 -16 -17 -17 -17 -17 -16 -16 -16 -16 -16 -16 -16 -16 -16 -16 -16 -15 -15 -15 -15 -15 -14 -14 -14 -14 -13 -13 -13 -13 -13 -12 -12 -12 -12 -12 -12 -11 -11 -11 -11 -11 -11 -11 -11 -11 -11

GFSSGP_500_temp_105.txt.gz
Temp
-7 -7 -6 -7 -6 -6 -6 -7 -8 -8 -6 -5 -5 -6 -5 -6 -6 -7 -6 -6 -5 -5 -5 -5 -4 -4 -4 -4 -5 -4 -4 -4 -4 -3 -3 -3 -3 -3 -3 -3 -3 -4 -4 -4 -4 -4 -4 -4 -4
-7 -7 -7 -7 -6 -6 -6 -7 -8 -7 -7 -5 -6 -6 -7 -7 -4 -6 -5 -6 -5 -6 -5 -5 -4 -4 -4 -4 -4 -5 -5 -5 -5 -4 -4 -4 -4 -4 -4 -4 -4 -4 -4 -4 -4 -4 -4 -5 -5
-7 -7 -7 -7 -6 -6 -7 -8 -8 -9 -6 -7 -7 -6 -6 -7 -4 -5 -6 -6 -6 -6 -6 -6 -5 -5 -5 -5 -4 -5 -5 -5 -5 -5 -5 -5 -5 -5 -4 -4 -4 -5 -5 -5 -5 -5 -5 -5 -5
-7 -7 -8 -7 -6 -6 -7 -8 -9 -9 -6 -7 -6 -7 -6 -6 -6 -7 -7 -6 -6 -6 -6 -5 -5 -6 -6 -5 -5 -5 -5 -5 -5 -5 -5 -5 -5 -5 -5 -5 -5 -5 -5 -5 -5 -5 -5 -5 -5
-7 -8 -7 -7 -7 -7 -7 -7 -8 -6 -7 -7 -7 -7 -6 -5 -7 -7 -7 -7 -7 -6 -6 -6 -6 -5 -6 -6 -5 -5 -6 -6 -6 -5 -5 -5 -5 -5 -5 -5 -5 -5 -5 -6 -6 -6 -6 -6 -6
-7 -8 -7 -7 -7 -7 -7 -7 -7 -7 -7 -7 -7 -7 -7 -5 -6 -6 -7 -7 -7 -6 -6 -6 -6 -6 -6 -5 -6 -6 -5 -6 -6 -6 -6 -6 -6 -5 -5 -5 -5 -5 -6 -6 -6 -6 -6 -6 -6
-8 -8 -8 -8 -8 -9 -9 -8 -6 -7 -7 -7 -7 -7 -7 -6 -5 -6 -6 -6 -6 -7 -7 -6 -6 -6 -6 -6 -6 -6 -6 -6 -6 -6 -7 -7 -6 -6 -6 -6 -6 -6 -6 -6 -6 -6 -7 -7 -7
-9 -9 -8 -8 -9 -9 -9 -7 -7 -7 -7 -6 -6 -7 -7 -7 -5 -6 -7 -7 -7 -7 -7 -7 -7 -7 -7 -7 -7 -7 -7 -6 -7 -6 -7 -7 -7 -7 -7 -7 -6 -6 -6 -6 -7 -7 -7 -7 -7
-9 -9 -8 -9 -9 -9 -9 -7 -8 -7 -7 -6 -7 -7 -7 -6 -6 -7 -7 -7 -7 -7 -7 -7 -7 -7 -8 -8 -8 -8 -7 -7 -7 -7 -7 -7 -7 -7 -7 -7 -7 -7 -7 -7 -7 -7 -7 -7 -7
-9 -9 -9 -9 -10 -9 -9 -8 -8 -8 -8 -7 -7 -8 -8 -7 -7 -7 -7 -7 -7 -7 -7 -7 -7 -7 -7 -8 -8 -8 -8 -8 -8 -7 -7 -8 -7 -8 -8 -7 -7 -7 -7 -8 -8 -7 -7 -8 -8
-9 -9 -10 -10 -9 -9 -9 -8 -8 -8 -8 -8 -7 -8 -8 -8 -7 -7 -7 -7 -7 -6 -6 -6 -7 -7 -7 -8 -8 -8 -8 -8 -8 -8 -8 -7 -7 -7 -7 -8 -8 -8 -8 -7 -7 -8 -8 -8 -8
-10 -9 -10 -10 -9 -9 -9 -9 -8 -8 -8 -8 -8 -8 -8 -8 -7 -7 -7 -7 -7 -5 -8 -7 -6 -7 -8 -8 -8 -8 -8 -8 -8 -8 -8 -8 -8 -8 -8 -8 -8 -8 -8 -8 -7 -7 -8 -8 -8
-10 -10 -10 -10 -9 -10 -9 -9 -9 -8 -8 -8 -8 -8 -8 -7 -8 -8 -7 -7 -6 -6 -8 -7 -6 -7 -7 -8 -8 -8 -8 -8 -8 -8 -8 -8 -8 -8 -8 -8 -8 -8 -8 -8 -8 -8 -8 -8 -8
-11 -11 -10 -10 -10 -10 -9 -9 -8 -8 -8 -8 -8 -8 -8 -7 -8 -8 -8 -7 -7 -6 -6 -6 -6 -7 -8 -8 -8 -9 -9 -9 -9 -9 -9 -9 -9 -9 -9 -8 -9 -9 -8 -8 -8 -8 -8 -8 -8
-11 -11 -11 -10 -10 -10 -9 -9 -9 -9 -8 -8 -8 -8 -8 -8 -8 -7 -7 -7 -7 -7 -6 -7 -7 -7 -8 -9 -10 -10 -10 -9 -10 -10 -10 -10 -10 -9 -8 -8 -8 -8 -8 -8 -9 -8 -8 -8 -8
-12 -12 -12 -12 -11 -10 -10 -10 -10 -9 -9 -9 -8 -8 -8 -8 -8 -8 -7 -7 -7 -7 -7 -8 -9 -9 -10 -10 -11 -11 -10 -9 -10 -10 -11 -10 -10 -9 -9 -9 -8 -9 -8 -8 -8 -8 -8 -8 -9
-12 -12 -12 -12 -13 -11 -10 -11 -10 -9 -9 -9 -8 -8 -8 -8 -8 -8 -8 -7 -8 -9 -8 -10 -11 -11 -12 -11 -11 -11 -11 -11 -11 -11 -11 -11 -11 -9 -9 -9 -9 -9 -8 -8 -8 -8 -8 -8 -9
-12 -13 -13 -14 -15 -12 -11 -11 -11 -10 -10 -10 -9 -9 -9 -8 -8 -8 -8 -9 -10 -11 -11 -11 -12 -12 -12 -12 -11 -11 -11 -11 -11 -10 -10 -3 -10 -10 -10 -10 -9 -9 -9 -9 -8 -8 -9 -8 -9
-14 -15 -15 -15 -15 -15 -13 -12 -11 -13 -11 -10 -10 -10 -10 -9 -10 -9 -8 -10 -12 -10 -13 -12 -12 -12 -12 -12 -12 -12 -13 -13 -12 -11 -10 -9 -9 -11 -10 -10 -10 -10 -9 -9 -9 -9 -10 -9 -9
-14 -15 -15 -16 -15 -16 -13 -13 -12 -12 -12 -11 -10 -11 -10 -11 -10 -10 -10 -11 -12 -13 -12 -12 -12 -12 -13 -13 -13 -13 -13 -13 -13 -12 -12 -11 -11 -11 -10 -10 -10 -10 -9 -10 -9 -10 -10 -10 -10
-14 -15 -15 -15 -16 -15 -15 -15 -13 -13 -12 -11 -12 -12 -11 -11 -11 -11 -11 -12 -12 -12 -12 -12 -13 -13 -13 -13 -13 -13 -13 -13 -12 -12 -12 -12 -12 -11 -11 -11 -11 -11 -10 -8 -8 -9 -10 -10 -10
-14 -15 -16 -16 -16 -16 -15 -15 -14 -13 -13 -12 -12 -12 -12 -12 -12 -12 -12 -12 -13 -13 -13 -13 -13 -14 -14 -14 -14 -14 -13 -13 -13 -13 -13 -13 -14 -14 -13 -12 -11 -11 -11 -11 -9 -10 -10 -11 -11
-14 -16 -15 -16 -16 -16 -15 -15 -14 -15 -14 -13 -12 -12 -12 -12 -12 -12 -13 -13 -13 -13 -13 -13 -13 -14 -14 -14 -14 -14 -14 -14 -14 -13 -13 -13 -14 -14 -14 -12 -11 -11 -11 -11 -11 -12 -12 -10 -10
-15 -15 -15 -16 -16 -16 -15 -15 -14 -14 -14 -15 -13 -13 -13 -13 -12 -13 -13 -13 -13 -13 -14 -14 -14 -14 -14 -14 -14 -14 -14 -14 -14 -14 -13 -13 -13 -14 -14 -13 -12 -12 -12 -11 -11 -11 -11 -11 -11
-15 -15 -16 -16 -16 -15 -16 -15 -14 -14 -14 -14 -14 -14 -14 -14 -13 -13 -14 -14 -14 -14 -14 -14 -14 -15 -15 -14 -14 -14 -14 -14 -14 -14 -14 -14 -14 -14 -14 -13 -13 -12 -12 -12 -13 -13 -12 -12 -11
-16 -16 -16 -15 -15 -15 -15 -15 -15 -14 -14 -14 -14 -15 -14 -14 -14 -13 -14 -14 -14 -14 -14 -14 -14 -15 -15 -14 -14 -14 -14 -14 -14 -14 -15 -15 -14 -14 -14 -13 -13 -12 -12 -12 -11 -11 -11 -11 -11
-17 -17 -16 -15 -15 -14 -15 -14 -14 -14 -14 -15 -14 -15 -15 -14 -14 -14 -13 -13 -14 -14 -14 -14 -14 -14 -14 -14 -14 -14 -14 -14 -14 -14 -14 -14 -14 -14 -13 -13 -13 -12 -12 -11 -11 -11 -10 -11 -11
-16 -16 -16 -15 -15 -15 -14 -14 -15 -15 -15 -15 -16 -15 -15 -15 -15 -14 -14 -14 -14 -14 -14 -14 -14 -14 -14 -14 -14 -14 -14 -14 -14 -14 -14 -13 -13 -13 -13 -13 -13 -12 -12 -12 -12 -12 -11 -11 -11
-17 -17 -15 -15 -16 -15 -15 -14 -14 -14 -15 -15 -16 -16 -15 -15 -15 -15 -14 -14 -14 -14 -14 -14 -14 -15 -14 -14 -14 -14 -13 -13 -14 -13 -13 -13 -13 -13 -13 -13 -12 -12 -12 -12 -12 -12 -12 -11 -11
-16 -16 -16 -16 -16 -15 -15 -15 -15 -15 -15 -15 -15 -15 -15 -15 -15 -15 -15 -15 -15 -15 -15 -14 -15 -15 -14 -14 -14 -13 -13 -13 -13 -13 -13 -12 -12 -12 -12 -12 -12 -11 -11 -11 -11 -11 -11 -11 -11

GFSSGP_500_temp_111.txt.gz
Temp
-6 -6 -6 -6 -5 -5 -5 -5 -6 -6 -7 -8 -7 -7 -7 -6 -5 -5 -4 -5 -4 -4 -5 -5 -5 -5 -5 -4 -4 -3 -3 -3 -3 -3 -3 -3 -3 -3 -3 -3 -3 -2 -2 -2 -2 -2 -3 -3 -3
-6 -6 -6 -6 -5 -5 -5 -6 -6 -6 -6 -7 -6 -7 -7 -6 -6 -6 -5 -5 -6 -5 -5 -5 -5 -5 -5 -5 -5 -4 -4 -3 -3 -3 -3 -3 -3 -3 -3 -3 -3 -3 -3 -2 -2 -3 -3 -3 -3
-6 -6 -6 -6 -5 -5 -5 -6 -6 -7 -9 -9 -8 -7 -7 -7 -5 -6 -5 -5 -6 -5 -5 -5 -5 -5 -6 -6 -6 -5 -5 -5 -4 -3 -3 -3 -3 -3 -3 -3 -3 -3 -3 -3 -3 -3 -3 -3 -4
-7 -6 -6 -5 -5 -5 -6 -6 -7 -6 -8 -9 -9 -9 -8 -6 -5 -4 -4 -5 -6 -6 -6 -6 -5 -5 -6 -6 -6 -6 -6 -6 -5 -5 -4 -4 -4 -3 -3 -3 -3 -3 -3 -3 -3 -3 -3 -3 -4
-7 -7 -6 -6 -6 -6 -6 -6 -8 -8 -9 -10 -9 -9 -7 -6 -5 -6 -5 -5 -5 -6 -6 -6 -6 -6 -6 -6 -6 -6 -6 -6 -6 -6 -5 -5 -5 -4 -4 -4 -4 -4 -4 -4 -4 -4 -4 -4 -4
-7 -7 -6 -6 -6 -7 -7 -6 -9 -8 -9 -10 -8 -8 -7 -6 -5 -5 -5 -6 -6 -6 -6 -6 -6 -6 -6 -6 -6 -5 -5 -5 -5 -6 -6 -5 -5 -5 -5 -5 -5 -5 -5 -4 -4 -5 -5 -5 -5
-7 -7 -7 -7 -7 -7 -7 -8 -10 -9 -9 -10 -10 -7 -6 -5 -5 -5 -6 -5 -6 -6 -6 -6 -6 -5 -5 -5 -5 -5 -6 -6 -5 -5 -5 -5 -6 -6 -6 -6 -5 -5 -5 -5 -5 -5 -5 -5 -5
-8 -8 -7 -7 -7 -7 -8 -8 -8 -9 -10 -10 -10 -10 -7 -6 -6 -5 -5 -6 -6 -6 -6 -6 -6 -5 -6 -6 -6 -6 -6 -6 -6 -6 -6 -5 -5 -6 -6 -6 -6 -6 -6 -6 -5 -5 -5 -5 -5
-8 -7 -6 -7 -7 -8 -9 -10 -9 -10 -10 -10 -10 -9 -8 -7 -7 -6 -6 -5 -5 -6 -6 -6 -6 -6 -6 -6 -6 -6 -6 -6 -6 -6 -6 -7 -7 -6 -6 -6 -7 -7 -6 -7 -7 -7 -6 -6 -6
-8 -8 -7 -8 -9 -8 -10 -10 -9 -9 -10 -10 -10 -10 -9 -8 -7 -7 -7 -7 -6 -5 -5 -6 -7 -7 -7 -7 -7 -7 -7 -7 -7 -7 -7 -7 -7 -7 -7 -7 -7 -7 -7 -7 -7 -7 -7 -7 -7
-8 -7 -8 -9 -9 -10 -10 -9 -10 -10 -8 -9 -9 -8 -8 -7 -7 -7 -7 -7 -6 -5 -5 -5 -6 -7 -8 -7 -8 -7 -8 -8 -8 -7 -7 -7 -8 -9 -8 -8 -8 -8 -8 -8 -8 -8 -8 -8 -8
-8 -8 -9 -9 -9 -10 -9 -9 -8 -9 -8 -7 -8 -9 -9 -8 -7 -7 -8 -9 -6 -5 -4 -4 -7 -8 -7 -7 -7 -7 -8 -7 -8 -8 -7 -8 -9 -9 -9 -9 -9 -9 -9 -9 -9 -9 -9 -9 -8
-8 -9 -9 -10 -10 -10 -10 -9 -9 -9 -8 -9 -9 -8 -9 -8 -8 -8 -9 -8 -7 -5 -5 -7 -8 -7 -7 -8 -9 -9 -8 -8 -9 -8 -8 -7 -8 -8 -8 -9 -8 -8 -9 -9 -9 -9 -9 -9 -9
-10 -10 -10 -10 -10 -11 -10 -10 -10 -9 -10 -9 -9 -9 -9 -8 -8 -9 -9 -8 -7 -6 -6 -8 -7 -6 -8 -7 -9 -9 -9 -7 -7 -7 -7 -7 -7 -7 -8 -8 -8 -9 -10 -10 -10 -10 -9 -9 -10
-10 -10 -10 -10 -10 -11 -11 -10 -9 -10 -10 -10 -10 -10 -9 -9 -9 -9 -9 -8 -8 -7 -7 -7 -7 -8 -8 -8 -8 -8 -7 -6 -6 -6 -6 -6 -7 -7 -8 -8 -8 -8 -9 -10 -9 -10 -10 -10 -10
-10 -10 -10 -10 -11 -11 -12 -10 -10 -10 -10 -10 -10 -10 -9 -9 -9 -9 -9 -9 -8 -8 -8 -8 -7 -7 -8 -7 -8 -8 -7 -5 -6 -7 -7 -8 -8 -8 -7 -8 -9 -9 -9 -9 -9 -10 -9 -9 -9
-10 -10 -10 -11 -11 -11 -11 -10 -11 -11 -11 -10 -10 -10 -9 -9 -10 -9 -9 -9 -8 -8 -8 -8 -8 -7 -8 -8 -8 -8 -8 -7 -6 -6 -6 -7 -8 -8 -7 -8 -9 -8 -9 -9 -9 -9 -9 -9 -9
-10 -10 -11 -11 -12 -12 -12 -11 -12 -12 -11 -11 -11 -10 -10 -9 -10 -9 -9 -9 -8 -8 -8 -8 -8 -8 -8 -8 -8 -8 -8 -7 -7 -7 -7 -7 -8 -8 -8 -8 -9 -9 -10 -9 -9 -9 -9 -9 -9
-12 -12 -12 -12 -13 -13 -12 -13 -13 -13 -12 -11 -11 -10 -10 -10 -10 -10 -9 -9 -8 -8 -8 -7 -8 -8 -8 -8 -8 -8 -8 -8 -8 -9 -7 -7 -8 -9 -8 -8 -9 -9 -9 -9 -9 -9 -10 -9 -10
-12 -12 -12 -12 -14 -14 -14 -14 -14 -15 -13 -14 -14 -12 -11 -11 -10 -10 -10 -9 -8 -8 -7 -8 -8 -9 -9 -9 -9 -8 -8 -9 -8 -7 -7 -7 -7 -8 -9 -9 -10 -11 -10 -11 -10 -9 -10 -11 -10
-12 -12 -13 -13 -14 -15 -15 -14 -15 -15 -15 -15 -15 -14 -13 -12 -13 -11 -10 -9 -9 -9 -8 -9 -9 -10 -9 -9 -9 -9 -9 -10 -10 -10 -10 -9 -8 -9 -9 -10 -10 -10 -10 -10 -10 -10 -11 -11 -11
-12 -13 -13 -14 -15 -15 -15 -14 -14 -15 -15 -15 -14 -14 -14 -13 -12 -11 -10 -9 -9 -10 -10 -10 -9 -9 -9 -9 -10 -10 -11 -10 -10 -10 -10 -10 -10 -10 -10 -10 -10 -11 -11 -10 -11 -12 -12 -12 -12
-13 -14 -14 -15 -14 -15 -15 -15 -14 -15 -14 -15 -15 -15 -14 -14 -12 -12 -12 -12 -11 -12 -12 -12 -11 -11 -10 -10 -10 -11 -11 -11 -11 -11 -11 -11 -11 -11 -11 -11 -11 -11 -11 -12 -12 -12 -12 -12 -13
-15 -14 -15 -16 -15 -14 -15 -15 -13 -14 -14 -14 -15 -14 -14 -14 -12 -13 -12 -12 -13 -13 -12 -12 -12 -12 -11 -11 -11 -12 -12 -12 -12 -12 -12 -12 -12 -12 -12 -12 -11 -11 -11 -11 -11 -11 -12 -12 -13
-16 -16 -16 -16 -16 -15 -15 -15 -13 -14 -14 -13 -15 -14 -13 -13 -13 -13 -13 -13 -14 -13 -13 -13 -12 -12 -13 -12 -12 -12 -12 -12 -12 -12 -12 -12 -12 -11 -11 -11 -11 -11 -11 -11 -12 -12 -12 -12 -12
-16 -16 -15 -15 -15 -14 -14 -13 -13 -15 -15 -14 -14 -13 -12 -13 -14 -14 -14 -14 -14 -13 -13 -13 -13 -13 -13 -13 -12 -12 -12 -12 -12 -12 -12 -12 -12 -11 -11 -11 -11 -11 -11 -11 -11 -11 -12 -13 -13
-16 -16 -16 -16 -15 -15 -15 -14 -14 -15 -15 -14 -13 -13 -13 -14 -13 -14 -14 -14 -14 -14 -14 -13 -13 -13 -13 -13 -13 -13 -13 -12 -12 -12 -12 -12 -11 -11 -11 -11 -11 -11 -11 -11 -11 -11 -12 -12 -12
-16 -16 -16 -16 -16 -15 -14 -14 -14 -14 -15 -14 -14 -14 -14 -13 -13 -13 -13 -13 -14 -14 -14 -14 -13 -13 -13 -13 -13 -13 -13 -12 -12 -12 -12 -12 -11 -11 -11 -11 -10 -11 -11 -11 -11 -11 -11 -11 -12
-16 -16 -16 -16 -16 -15 -14 -14 -14 -14 -14 -13 -14 -15 -14 -13 -13 -14 -14 -14 -14 -14 -14 -14 -14 -13 -13 -13 -13 -13 -13 -13 -12 -12 -12 -12 -12 -12 -11 -11 -11 -11 -11 -11 -11 -11 -11 -11 -11
-16 -16 -16 -16 -16 -15 -14 -15 -14 -14 -14 -14 -13 -13 -14 -14 -14 -14 -14 -14 -13 -15 -15 -15 -14 -14 -14 -14 -13 -13 -13 -13 -13 -13 -12 -12 -12 -12 -11 -11 -11 -11 -11 -11 -11 -11 -11 -11 -11

GFSSGP_500_temp_114.txt.gz
Temp
-5 -5 -5 -5 -5 -4 -4 -5 -7 -7 -7 -7 -7 -7 -8 -8 -7 -7 -6 -6 -5 -5 -5 -5 -5 -4 -4 -5 -5 -5 -4 -4 -4 -3 -4 -4 -3 -3 -3 -3 -3 -3 -3 -3 -3 -3 -3 -3 -4
-4 -5 -5 -5 -5 -5 -4 -6 -7 -7 -7 -7 -7 -8 -7 -7 -8 -7 -7 -7 -6 -6 -5 -5 -5 -5 -5 -5 -5 -5 -5 -5 -4 -4 -4 -4 -4 -4 -4 -4 -3 -3 -3 -3 -3 -3 -3 -3 -4
-6 -5 -5 -5 -4 -5 -5 -6 -6 -7 -7 -7 -7 -8 -7 -7 -8 -8 -6 -7 -7 -5 -5 -6 -6 -6 -6 -6 -6 -6 -6 -6 -5 -5 -4 -4 -4 -4 -4 -4 -4 -4 -3 -4 -4 -4 -4 -4 -4
-6 -6 -5 -4 -4 -5 -5 -5 -6 -7 -7 -7 -6 -7 -6 -6 -6 -6 -6 -6 -6 -6 -6 -6 -6 -6 -6 -6 -6 -7 -7 -7 -7 -6 -6 -5 -5 -5 -4 -4 -4 -4 -4 -4 -4 -4 -4 -5 -5
-6 -6 -6 -5 -4 -5 -5 -6 -8 -7 -6 -7 -7 -6 -5 -5 -6 -5 -5 -6 -7 -7 -6 -6 -6 -6 -6 -6 -6 -7 -7 -7 -6 -6 -6 -6 -6 -6 -5 -5 -5 -5 -5 -5 -5 -5 -5 -5 -5
-6 -6 -6 -5 -6 -6 -6 -7 -9 -7 -7 -7 -7 -7 -6 -5 -5 -4 -5 -6 -6 -6 -6 -6 -6 -6 -6 -6 -6 -6 -6 -6 -6 -6 -6 -6 -6 -6 -6 -6 -6 -6 -6 -5 -5 -5 -5 -5 -5
-7 -6 -6 -6 -6 -6 -7 -8 -8 -8 -8 -7 -8 -7 -6 -5 -5 -4 -5 -6 -6 -6 -6 -6 -6 -6 -6 -7 -7 -6 -6 -6 -6 -6 -6 -7 -7 -7 -7 -7 -7 -6 -6 -6 -6 -6 -6 -6 -6
-7 -6 -6 -6 -6 -6 -8 -8 -8 -8 -8 -9 -8 -8 -7 -6 -5 -5 -6 -6 -7 -7 -7 -7 -6 -6 -6 -7 -7 -6 -6 -6 -6 -6 -6 -7 -7 -7 -7 -7 -7 -7 -7 -7 -7 -7 -7 -7 -7
-7 -5 -5 -6 -7 -8 -9 -8 -7 -7 -8 -9 -8 -9 -10 -8 -6 -5 -6 -6 -7 -7 -8 -7 -7 -7 -7 -7 -7 -7 -7 -7 -7 -7 -7 -7 -7 -7 -7 -7 -7 -7 -8 -8 -7 -8 -8 -8 -8
-6 -6 -6 -7 -8 -8 -9 -9 -8 -7 -7 -8 -9 -9 -10 -9 -9 -6 -5 -6 -6 -7 -7 -7 -7 -7 -7 -7 -7 -7 -7 -7 -7 -7 -7 -7 -7 -7 -8 -8 -8 -8 -8 -8 -8 -8 -8 -8 -8
-7 -6 -7 -7 -8 -9 -10 -9 -9 -8 -8 -8 -10 -10 -10 -10 -8 -8 -7 -7 -5 -6 -6 -7 -7 -8 -7 -8 -7 -7 -7 -6 -6 -7 -7 -7 -7 -8 -8 -9 -9 -9 -9 -9 -9 -9 -9 -8 -9
-6 -6 -7 -8 -9 -9 -10 -10 -9 -9 -8 -8 -8 -10 -9 -8 -8 -9 -8 -8 -6 -7 -6 -6 -7 -7 -6 -7 -8 -9 -8 -9 -9 -8 -8 -9 -8 -8 -9 -9 -9 -9 -9 -10 -9 -9 -9 -9 -9
-6 -8 -8 -8 -8 -9 -11 -10 -10 -9 -9 -8 -8 -8 -9 -9 -10 -9 -8 -8 -8 -7 -7 -7 -8 -9 -7 -7 -8 -9 -8 -10 -10 -10 -9 -9 -7 -7 -8 -9 -9 -10 -10 -10 -10 -10 -10 -10 -10
-8 -8 -8 -8 -8 -10 -11 -10 -10 -10 -10 -9 -9 -9 -8 -9 -10 -10 -9 -8 -8 -8 -7 -7 -8 -8 -7 -8 -8 -9 -9 -9 -9 -10 -9 -8 -8 -7 -7 -7 -8 -8 -9 -9 -10 -10 -11 -11 -10
-8 -7 -8 -8 -9 -10 -11 -10 -9 -10 -10 -10 -10 -9 -10 -10 -10 -10 -10 -9 -8 -9 -8 -8 -8 -8 -8 -8 -8 -9 -8 -7 -8 -9 -8 -7 -7 -7 -7 -8 -9 -8 -8 -8 -9 -10 -10 -10 -9
-8 -7 -7 -8 -9 -10 -11 -8 -10 -11 -10 -10 -10 -10 -10 -10 -10 -10 -10 -9 -9 -9 -9 -8 -8 -8 -8 -8 -7 -8 -8 -9 -9 -9 -8 -8 -8 -7 -7 -7 -7 -7 -8 -8 -10 -9 -9 -9 -9
-8 -8 -8 -9 -9 -11 -11 -9 -11 -11 -11 -11 -11 -11 -11 -10 -10 -10 -10 -9 -9 -9 -9 -9 -8 -8 -8 -8 -8 -8 -8 -7 -8 -8 -8 -8 -8 -8 -8 -8 -7 -8 -8 -8 -9 -10 -9 -8 -9
-8 -9 -9 -9 -11 -11 -11 -10 -11 -12 -12 -11 -11 -11 -11 -11 -10 -10 -10 -10 -9 -9 -9 -9 -9 -8 -8 -8 -9 -9 -8 -8 -7 -8 -9 -9 -8 -8 -9 -9 -9 -9 -9 -9 -10 -9 -9 -9 -9
-10 -10 -9 -10 -12 -12 -11 -11 -12 -12 -12 -12 -11 -11 -11 -11 -10 -10 -10 -10 -9 -9 -9 -9 -9 -9 -9 -9 -9 -9 -9 -8 -8 -8 -8 -8 -8 -7 -7 -9 -9 -9 -10 -10 -10 -10 -10 -10 -9
-10 -10 -10 -11 -12 -11 -12 -12 -12 -12 -13 -12 -12 -12 -12 -11 -11 -10 -10 -10 -10 -10 -9 -9 -9 -10 -10 -10 -9 -8 -9 -9 -9 -9 -9 -8 -7 -8 -9 -9 -9 -9 -10 -10 -10 -11 -11 -11 -10
-10 -10 -11 -11 -13 -12 -13 -12 -13 -13 -13 -14 -14 -14 -14 -13 -11 -10 -10 -10 -10 -9 -9 -9 -10 -11 -11 -10 -10 -10 -9 -9 -9 -9 -9 -8 -8 -9 -10 -10 -10 -9 -9 -10 -10 -10 -11 -11 -11
-11 -12 -12 -12 -14 -13 -13 -13 -14 -14 -14 -15 -15 -15 -14 -14 -11 -11 -10 -11 -10 -10 -10 -11 -10 -11 -11 -11 -11 -10 -10 -10 -10 -9 -10 -10 -10 -11 -10 -10 -10 -10 -10 -10 -10 -10 -10 -10 -11
-11 -13 -13 -13 -14 -14 -14 -14 -14 -14 -15 -15 -15 -15 -14 -14 -14 -13 -12 -11 -11 -11 -11 -11 -12 -12 -12 -11 -11 -10 -10 -11 -11 -11 -11 -10 -10 -10 -11 -11 -11 -11 -11 -11 -10 -10 -11 -11 -11
-13 -14 -14 -14 -15 -15 -14 -14 -14 -14 -14 -14 -15 -15 -14 -14 -14 -14 -14 -13 -13 -12 -12 -12 -12 -11 -11 -11 -11 -11 -12 -12 -12 -12 -11 -11 -11 -11 -11 -11 -11 -12 -11 -11 -11 -11 -11 -11 -11
-14 -15 -15 -15 -15 -14 -15 -14 -14 -13 -14 -14 -15 -14 -13 -14 -15 -14 -15 -15 -14 -13 -13 -13 -13 -13 -13 -12 -12 -12 -12 -13 -13 -13 -13 -12 -12 -12 -12 -12 -12 -11 -11 -11 -11 -11 -11 -11 -11
-15 -15 -15 -15 -15 -15 -15 -14 -14 -13 -14 -15 -14 -13 -13 -14 -15 -15 -14 -15 -15 -15 -14 -15 -14 -14 -14 -13 -13 -13 -13 -13 -13 -13 -13 -13 -13 -13 -13 -12 -12 -12 -11 -11 -11 -10 -10 -10 -11
-16 -16 -15 -17 -15 -15 -14 -14 -14 -15 -15 -15 -15 -15 -14 -13 -14 -14 -15 -15 -14 -15 -15 -15 -15 -15 -14 -14 -14 -14 -14 -13 -14 -14 -14 -13 -13 -13 -13 -12 -12 -12 -12 -12 -12 -11 -11 -11 -11
-16 -16 -16 -16 -16 -15 -15 -14 -14 -15 -14 -14 -15 -15 -15 -15 -14 -14 -14 -14 -15 -15 -15 -15 -15 -14 -15 -15 -14 -14 -14 -14 -14 -14 -13 -13 -13 -13 -12 -12 -12 -12 -12 -12 -11 -11 -11 -11 -11
-16 -16 -16 -16 -16 -16 -15 -15 -14 -15 -14 -13 -14 -14 -14 -14 -14 -14 -14 -14 -15 -15 -16 -15 -15 -15 -15 -15 -15 -15 -14 -14 -14 -14 -13 -13 -13 -12 -12 -12 -12 -12 -12 -12 -11 -11 -11 -11 -11
-15 -16 -16 -16 -16 -16 -16 -15 -15 -14 -14 -14 -13 -14 -14 -14 -14 -14 -14 -14 -14 -15 -15 -15 -14 -15 -15 -15 -15 -15 -15 -14 -14 -14 -14 -13 -13 -13 -13 -13 -13 -12 -12 -12 -11 -11 -11 -11 -11